Wind_Speed
14 9 13 13 15 11 10 9 5 3 1 5 14 17 29 46 52 52 51 49 44 43 42 45 46 48 50 50 47 44 43 45 49 48 47 45 44 44 47 49 51 53 55
15 12 12 9 13 12 9 5 4 5 1 4 12 15 23 39 46 49 51 48 48 46 45 44 46 46 46 48 51 49 48 47 54 53 55 54 52 53 56 57 58 61 63
19 12 15 15 11 10 7 7 4 4 3 3 7 15 20 30 38 43 46 47 51 50 48 45 45 47 49 50 50 52 52 55 59 60 60 57 58 59 61 63 63 65 66
16 16 14 15 17 9 6 9 7 7 7 5 5 6 16 28 36 37 44 46 44 47 50 51 51 51 52 52 51 49 56 60 60 62 64 60 62 64 67 68 67 67 70
16 17 14 10 9 5 4 5 8 13 13 10 9 8 8 11 36 41 41 47 50 48 50 52 54 54 55 57 58 54 55 58 60 61 64 65 68 70 72 74 74 75 77
24 22 23 18 13 11 11 11 12 10 9 8 14 17 13 15 17 33 47 47 51 52 53 54 56 58 61 64 66 67 63 60 60 63 66 69 70 73 75 76 78 79 82
29 26 30 29 26 24 22 22 21 19 19 18 19 19 23 25 25 27 31 35 47 56 57 59 61 63 63 64 65 64 65 66 68 69 69 70 73 76 78 80 82 85 88
25 25 28 33 30 30 28 28 27 27 26 28 26 24 26 24 27 34 37 40 42 45 49 52 54 57 59 60 62 65 67 70 72 73 74 75 77 81 84 87 88 89 88
18 23 24 27 30 30 31 29 27 26 27 30 30 34 32 33 37 36 39 43 47 50 53 56 59 62 63 64 67 72 74 77 80 82 84 85 86 87 89 91 94 97 99
17 17 20 24 27 27 28 30 30 32 31 31 34 35 35 37 42 46 48 47 48 53 56 59 64 66 67 70 72 75 78 81 82 85 88 91 92 94 96 94 93 92 93
24 23 26 26 26 29 31 32 35 37 38 39 41 45 47 48 50 52 52 54 59 62 63 64 67 70 72 75 78 80 82 85 87 90 91 93 92 92 89 88 92 91 89
24 25 26 28 29 27 27 28 29 31 34 37 39 39 41 46 52 58 64 66 69 68 69 72 75 77 77 78 81 83 85 87 88 91 91 92 94 94 95 94 94 93 96
24 24 26 25 26 30 31 33 35 36 38 39 38 39 39 41 45 47 52 59 64 69 74 77 76 79 80 82 83 84 84 84 86 87 89 91 93 96 94 97 96 96 96
33 35 36 37 39 42 43 44 45 46 45 46 47 48 49 51 53 55 54 53 53 55 58 63 68 72 75 79 81 81 81 82 83 85 88 89 90 92 96 96 97 98 100
45 45 46 48 50 51 52 52 51 52 54 56 57 57 58 60 61 62 60 58 56 56 58 60 64 67 70 73 76 79 81 84 87 88 90 93 95 98 102 103 105 105 105
55 54 53 52 54 56 58 59 58 60 61 61 62 63 65 66 67 66 64 61 61 61 62 62 64 66 69 71 73 78 79 81 84 88 91 95 99 105 110 115 118 119 119
61 60 60 61 63 64 65 65 65 66 67 65 67 70 71 70 67 68 65 64 64 66 65 65 65 67 69 71 75 78 81 86 91 94 95 96 96 97 100 102 105 107 111
66 67 67 68 69 70 69 69 69 71 72 73 74 74 72 70 71 70 67 66 67 67 66 66 67 70 73 76 79 82 85 89 93 93 94 97 99 100 100 101 102 105 107
70 71 71 72 72 73 75 75 76 77 79 78 76 74 74 73 72 70 68 68 69 68 69 70 73 76 79 82 81 83 86 90 95 97 98 99 99 100 101 103 103 104 106
76 76 76 76 77 77 78 79 79 79 79 75 75 74 74 74 72 70 71 72 71 71 72 74 78 81 86 90 90 92 94 98 100 99 100 103 104 103 101 97 95 93 92
76 76 76 78 79 80 78 76 75 74 76 75 77 75 73 71 71 72 75 75 75 78 80 82 83 85 89 94 97 99 97 99 101 100 97 90 86 84 81 79 77 75 75
79 79 78 78 78 79 77 75 74 72 72 71 70 70 72 72 74 73 74 76 79 84 87 90 92 94 95 96 96 97 96 91 84 80 77 74 72 71 69 67 66 65 63
69 71 74 75 73 70 69 69 67 68 68 69 70 70 71 73 74 75 78 81 87 91 93 96 97 97 97 96 95 86 78 75 72 69 67 64 63 61 58 55 52 51 50
64 60 59 62 63 64 63 64 63 64 67 67 70 72 74 76 79 82 85 89 93 95 96 97 97 97 96 85 76 72 67 64 61 58 56 53 52 51 49 47 44 42 41
55 56 57 59 61 60 60 60 62 64 65 69 72 75 77 81 84 88 92 94 95 96 96 97 96 87 77 72 66 61 57 53 51 49 47 46 46 46 44 41 39 37 36
49 51 51 53 55 59 60 62 65 68 72 75 76 80 84 87 91 93 93 94 95 96 95 87 78 71 66 61 57 54 52 49 46 43 42 42 42 40 38 35 33 31 30
Wind_Direction
284 289 322 334 339 304 343 357 5 33 4 217 194 204 214 203 208 214 217 221 222 229 233 236 237 239 240 246 252 258 265 272 271 272 270 274 273 276 275 277 280 283 283
270 283 275 298 336 332 289 345 16 18 353 179 209 210 213 206 207 214 218 220 226 231 236 241 242 246 251 254 257 262 269 270 271 272 272 275 274 276 278 281 283 285 286
278 272 270 267 284 325 310 323 337 335 357 235 210 219 219 210 209 215 221 222 226 230 232 237 241 247 251 255 262 268 273 274 273 273 272 273 274 276 278 278 281 283 281
270 264 249 237 250 264 275 297 305 292 300 302 286 244 219 219 211 215 217 218 225 230 232 236 241 245 250 256 262 262 261 263 266 270 272 274 274 276 278 279 280 278 280
265 245 224 210 201 220 249 246 255 276 280 275 274 272 248 234 220 217 218 222 226 231 237 241 243 244 246 249 251 259 261 265 270 270 271 273 274 276 276 277 278 281 284
262 243 237 236 243 247 266 278 281 269 267 265 254 256 251 250 246 227 225 228 232 236 239 244 248 250 252 253 255 260 264 267 270 271 274 276 278 280 282 285 285 286 286
267 266 243 245 252 267 279 282 287 273 271 277 280 267 251 249 245 241 242 243 241 242 244 247 252 255 258 262 262 261 262 266 268 269 270 271 273 275 277 279 281 282 284
272 269 252 251 258 268 275 285 285 280 276 273 272 268 261 261 255 254 253 252 251 250 251 253 257 259 260 261 260 261 263 264 266 268 269 269 269 271 272 275 277 278 273
270 260 260 259 264 268 274 272 280 288 289 285 284 278 272 262 258 259 259 257 254 254 256 258 260 262 263 263 263 263 265 266 266 267 268 269 268 269 269 268 269 273 276
272 268 261 264 268 271 276 272 278 289 290 286 284 281 278 274 266 261 261 258 259 258 257 258 261 261 260 260 261 261 261 261 262 264 265 266 267 271 272 276 278 279 278
262 272 270 268 275 277 284 290 289 289 290 290 288 287 285 282 279 275 270 268 264 262 260 260 264 262 263 265 266 266 267 268 269 270 270 271 272 273 275 277 278 280 282
279 281 283 282 284 289 287 286 291 290 290 289 288 290 292 292 289 284 280 273 271 270 267 268 269 267 268 270 270 269 268 270 271 271 271 272 272 273 275 275 276 278 280
279 276 273 268 280 284 281 284 288 290 291 291 292 295 293 296 302 295 287 281 276 273 271 271 272 273 273 273 271 270 270 272 271 271 272 273 273 275 274 275 276 277 279
280 278 278 278 281 287 290 292 293 294 295 295 296 300 301 301 303 307 303 293 284 280 277 274 273 273 272 271 271 270 272 274 273 273 274 276 277 278 278 278 279 278 279
282 281 280 280 283 286 288 293 294 296 297 299 300 301 301 300 303 304 305 298 293 290 287 281 277 274 273 273 274 275 277 278 279 280 282 283 282 282 281 280 279 280 280
282 282 282 283 285 288 289 289 293 294 295 297 299 301 301 301 301 303 302 298 295 294 291 286 282 280 279 278 278 278 279 279 279 280 280 279 278 277 275 274 274 275 274
278 280 281 282 286 288 290 291 291 294 294 294 298 300 299 299 301 303 300 298 296 295 292 288 287 285 283 282 280 278 278 278 279 280 281 280 280 279 278 277 276 276 275
277 279 280 282 284 286 288 289 291 293 293 294 298 298 297 300 301 300 298 297 295 292 290 289 287 286 285 284 284 284 283 282 281 281 282 284 283 281 280 278 277 276 276
278 279 281 282 283 285 287 288 290 292 293 296 297 298 298 299 299 297 297 295 293 292 291 292 291 291 289 289 289 290 291 291 290 288 288 287 285 284 282 281 279 278 277
278 279 281 282 283 285 286 288 290 291 292 294 294 296 297 297 298 296 296 295 295 293 293 293 295 297 297 297 297 296 295 294 292 291 289 287 286 286 285 284 283 281 280
277 277 278 279 281 282 285 286 289 291 293 294 296 297 297 297 295 295 296 297 299 300 301 299 297 297 298 297 297 296 295 294 292 290 289 289 288 287 287 286 285 283 282
278 278 278 279 281 282 284 287 289 290 289 291 292 292 292 294 296 297 299 299 299 299 299 300 301 301 300 299 298 297 296 295 294 292 291 290 289 288 288 288 287 285 283
277 278 278 279 281 282 284 286 287 288 290 290 291 293 295 296 297 299 299 299 300 301 302 302 302 302 301 300 300 299 298 297 296 294 293 293 292 292 292 290 289 287 285
275 276 276 276 278 280 284 287 288 289 290 292 294 296 299 301 301 301 301 302 302 302 302 302 303 303 302 302 301 301 299 298 298 296 296 297 297 297 297 296 296 293 289
271 271 274 280 284 288 289 290 290 290 292 295 297 300 301 301 300 300 301 302 302 303 304 305 304 304 304 304 303 304 303 303 302 302 302 303 302 301 299 298 297 295 291
274 276 280 284 286 288 290 291 293 295 296 298 299 299 299 299 301 302 303 304 304 305 306 306 307 307 306 306 306 306 306 306 306 305 306 306 305 302 299 298 296 295 292
Height
10851 10847 10846 10845 10843 10841 10839 10837 10835 10832 10830 10828 10830 10833 10836 10843 10853 10860 10867 10873 10877 10882 10887 10890 10891 10891 10892 10893 10895 10896 10897 10896 10893 10892 10893 10893 10890 10887 10883 10883 10881 10876 10875
10847 10846 10844 10842 10841 10840 10839 10838 10836 10834 10832 10831 10832 10834 10837 10842 10849 10856 10862 10867 10870 10874 10879 10882 10883 10883 10883 10884 10885 10887 10885 10886 10883 10882 10881 10881 10880 10875 10872 10870 10869 10863 10860
10844 10843 10842 10840 10839 10839 10838 10837 10837 10836 10835 10834 10835 10835 10838 10842 10846 10850 10855 10859 10862 10866 10869 10872 10873 10873 10874 10875 10874 10874 10874 10873 10870 10870 10868 10867 10865 10861 10858 10857 10856 10850 10846
10840 10840 10840 10839 10838 10838 10839 10838 10837 10837 10836 10836 10836 10836 10836 10839 10842 10845 10849 10852 10854 10857 10860 10862 10863 10864 10864 10865 10865 10865 10864 10862 10858 10855 10853 10852 10850 10845 10841 10841 10841 10836 10832
10836 10836 10836 10836 10836 10837 10837 10837 10836 10837 10836 10836 10836 10836 10836 10837 10839 10840 10842 10844 10846 10849 10851 10852 10853 10853 10854 10854 10853 10851 10849 10846 10843 10840 10837 10835 10832 10829 10824 10822 10824 10819 10813
10831 10832 10833 10833 10834 10834 10835 10835 10834 10834 10834 10834 10834 10834 10834 10835 10836 10837 10837 10838 10839 10840 10842 10843 10843 10843 10842 10840 10839 10837 10834 10831 10828 10824 10821 10817 10814 10811 10807 10802 10797 10797 10793
10825 10826 10828 10829 10829 10830 10831 10830 10830 10831 10831 10831 10831 10830 10829 10829 10829 10829 10831 10832 10831 10832 10832 10831 10829 10828 10827 10826 10824 10820 10817 10814 10812 10809 10806 10804 10800 10796 10793 10789 10783 10776 10772
10820 10818 10822 10822 10824 10824 10825 10824 10824 10826 10826 10824 10824 10825 10824 10824 10822 10822 10823 10820 10820 10820 10819 10818 10816 10813 10812 10810 10807 10804 10802 10799 10795 10793 10789 10787 10783 10778 10773 10770 10766 10761 10755
10816 10815 10816 10818 10818 10817 10818 10819 10819 10820 10819 10817 10817 10816 10816 10816 10814 10813 10812 10810 10808 10808 10805 10804 10801 10797 10796 10795 10792 10788 10785 10782 10777 10774 10771 10768 10764 10759 10753 10747 10743 10739 10737
10811 10812 10812 10813 10813 10813 10812 10811 10811 10810 10811 10810 10808 10806 10806 10805 10803 10802 10801 10798 10796 10793 10791 10788 10785 10781 10777 10775 10773 10770 10766 10763 10760 10755 10750 10746 10743 10738 10732 10725 10719 10714 10708
10807 10806 10807 10807 10807 10806 10805 10803 10802 10800 10799 10798 10797 10795 10794 10792 10789 10786 10785 10783 10780 10778 10775 10772 10767 10764 10761 10757 10754 10752 10747 10743 10738 10732 10727 10725 10719 10712 10705 10700 10694 10688 10682
10801 10800 10800 10799 10798 10797 10796 10795 10792 10790 10789 10787 10785 10782 10779 10777 10773 10768 10765 10763 10760 10757 10755 10751 10745 10742 10740 10737 10732 10727 10723 10719 10715 10709 10704 10700 10694 10688 10682 10676 10669 10663 10658
10795 10794 10793 10792 10791 10789 10787 10786 10783 10780 10778 10776 10773 10770 10767 10764 10760 10755 10749 10741 10736 10732 10729 10726 10720 10716 10714 10710 10706 10701 10697 10694 10689 10686 10679 10674 10668 10661 10656 10650 10645 10637 10632
10789 10788 10785 10783 10782 10779 10776 10773 10771 10767 10764 10761 10757 10753 10749 10745 10740 10735 10730 10723 10717 10711 10706 10701 10697 10693 10689 10685 10679 10675 10671 10668 10663 10658 10653 10649 10642 10636 10629 10622 10618 10611 10603
10779 10777 10774 10771 10768 10765 10762 10760 10756 10752 10748 10743 10739 10735 10730 10725 10721 10715 10709 10703 10697 10691 10685 10681 10676 10671 10666 10661 10655 10650 10647 10643 10637 10631 10624 10617 10611 10605 10598 10593 10587 10579 10572
10764 10762 10760 10758 10754 10750 10747 10744 10741 10736 10731 10727 10722 10717 10712 10707 10701 10695 10688 10682 10676 10670 10665 10660 10655 10650 10644 10639 10634 10626 10623 10617 10611 10605 10597 10588 10582 10575 10568 10563 10555 10549 10541
10747 10745 10743 10741 10737 10733 10728 10726 10723 10718 10713 10709 10705 10700 10694 10688 10682 10676 10669 10663 10657 10650 10643 10639 10634 10628 10622 10617 10611 10606 10598 10589 10581 10573 10564 10556 10548 10540 10532 10525 10520 10512 10504
10729 10727 10726 10723 10719 10714 10710 10709 10705 10700 10693 10690 10687 10680 10673 10668 10661 10655 10649 10643 10636 10629 10623 10617 10611 10605 10598 10591 10586 10579 10571 10562 10549 10540 10533 10523 10512 10503 10496 10488 10482 10476 10469
10710 10709 10706 10704 10701 10696 10690 10689 10687 10681 10670 10672 10665 10659 10653 10647 10641 10634 10629 10623 10615 10607 10600 10594 10586 10580 10571 10563 10558 10549 10539 10527 10512 10503 10497 10485 10474 10466 10457 10450 10444 10439 10433
10691 10691 10688 10683 10679 10676 10671 10668 10666 10659 10653 10651 10647 10641 10632 10624 10618 10612 10606 10598 10592 10584 10580 10576 10564 10553 10539 10527 10520 10514 10505 10493 10477 10467 10458 10446 10436 10428 10420 10413 10405 10400 10395
10671 10670 10669 10664 10661 10657 10654 10650 10648 10643 10631 10627 10618 10614 10611 10605 10598 10591 10582 10574 10568 10558 10550 10543 10537 10531 10519 10505 10492 10480 10472 10457 10444 10433 10422 10411 10402 10393 10387 10380 10374 10370 10365
10649 10646 10645 10642 10639 10635 10633 10632 10627 10624 10618 10613 10606 10599 10592 10586 10578 10571 10563 10556 10546 10535 10525 10515 10506 10497 10487 10475 10460 10448 10438 10423 10410 10400 10392 10385 10376 10368 10362 10355 10350 10345 10341
10627 10625 10622 10621 10620 10614 10611 10612 10607 10601 10596 10591 10586 10579 10572 10567 10557 10551 10543 10533 10522 10510 10499 10487 10476 10464 10453 10441 10428 10415 10404 10394 10384 10375 10368 10360 10352 10346 10340 10334 10329 10324 10320
10609 10607 10602 10598 10599 10597 10596 10591 10589 10583 10575 10570 10563 10557 10550 10543 10533 10524 10517 10508 10497 10486 10474 10461 10448 10435 10423 10410 10398 10389 10380 10371 10362 10355 10347 10340 10333 10327 10321 10316 10312 10308 10304
10591 10590 10588 10583 10580 10578 10576 10572 10565 10562 10559 10553 10545 10537 10530 10521 10513 10504 10494 10484 10472 10460 10448 10433 10421 10407 10394 10385 10375 10366 10358 10351 10344 10337 10331 10325 10318 10312 10306 10302 10298 10294 10291
10577 10575 10576 10573 10569 10563 10558 10554 10549 10542 10536 10530 10524 10517 10509 10501 10490 10479 10469 10459 10448 10433 10421 10407 10392 10385 10373 10364 10357 10348 10341 10334 10328 10322 10317 10311 10305 10299 10294 10291 10287 10284 10281